Manistique, MI

10:38 AM EST on February 10, 2016 (GMT -0500)
Schoolcraft County

Weather History for KISQ - March, 2014

Change the Weather History Date:

Monday, March 3, 2014

  Actual Average Record
Temperature  
Mean Temperature -4 °F -  
Max Temperature 11 °F 31 °F 49 °F (1993)
Min Temperature -20 °F 12 °F -31 °F (1972)
Degree Days  
Heating Degree Days 70    
Moisture  
Dew Point -9 °F    
Average Humidity 66    
Maximum Humidity 83    
Minimum Humidity 52    
Precipitation  
Precipitation 0.00 in - - ()
Sea Level Pressure  
Sea Level Pressure 30.37 in    
Wind  
Wind Speed 6 mph (WSW)    
Max Wind Speed 15 mph    
Max Gust Speed 20 mph    
Visibility 10 miles    
Events      
Averages and records for this station are not official NWS values.
T = Trace of Precipitation, MM = Missing Value Source: NWS Daily Summary

Daily Weather History Graph

Daily Weather History Graph

Search for Another Location

Airport or City:

Trip Planner

Search our weather history database for the weather conditions in past years. The results will help you decide how hot, cold, wet, or windy it might be!

Date:

Astronomy

Mar. 03, 2014 Rise Set
Actual Time 7:19 AM EST 6:34 PM EST
Civil Twilight 6:49 AM EST 7:03 PM EST
Nautical Twilight 6:15 AM EST 7:38 PM EST
Astronomical Twilight 5:40 AM EST 8:13 PM EST
Moon 8:17 AM EST (3/3) 9:48 PM EST (3/3)
Length of Visible Light 12h 14m
Length of Day
11h 14m
Waxing Crescent, 8% of the Moon is Illuminated
Mar 3
Waxing Crescent
Mar 8
First Quarter
Mar 16
Full
Mar 23
Last Quarter
Mar 30
New

Hourly Weather History & Observations

Time (EST) Temp. Windchill Dew Point Humidity Pressure Visibility Wind Dir Wind Speed Gust Speed Precip Events Conditions
12:15 AM -6.2 °F -14.9 °F -11.7 °F 77% 30.38 in 10.0 mi WSW 3.5 mph - N/A   Clear
12:35 AM -8.7 °F -17.8 °F -13.9 °F 78% 30.37 in 10.0 mi West 3.5 mph - N/A   Clear
12:55 AM -11.0 °F -22.8 °F -15.9 °F 79% 30.38 in 10.0 mi West 4.6 mph - N/A   Clear
1:15 AM -8.0 °F -19.2 °F -14.1 °F 75% 30.38 in 10.0 mi West 4.6 mph - N/A   Clear
1:35 AM -8.3 °F -19.6 °F -15.0 °F 73% 30.38 in 10.0 mi West 4.6 mph - N/A   Clear
1:55 AM -8.9 °F -22.1 °F -15.2 °F 74% 30.38 in 10.0 mi West 5.8 mph - N/A   Clear
2:15 AM -9.9 °F -24.9 °F -15.5 °F 76% 30.39 in 10.0 mi WNW 6.9 mph - N/A   Scattered Clouds
2:35 AM -9.2 °F -24.0 °F -15.2 °F 75% 30.40 in 10.0 mi WNW 6.9 mph - N/A   Scattered Clouds
2:55 AM -10.7 °F -24.2 °F -16.1 °F 77% 30.41 in 10.0 mi WNW 5.8 mph - N/A   Clear
3:15 AM -9.9 °F -23.4 °F -14.4 °F 81% 30.42 in 10.0 mi West 5.8 mph - N/A   Clear
3:35 AM -12.3 °F - -17.0 °F 80% 30.43 in 10.0 mi Calm Calm - N/A   Clear
3:55 AM -12.8 °F -22.5 °F -17.3 °F 80% 30.43 in 10.0 mi WNW 3.5 mph - N/A   Clear
4:15 AM -14.3 °F -26.5 °F -18.8 °F 80% 30.42 in 10.0 mi West 4.6 mph - N/A   Clear
4:35 AM -13.9 °F -23.7 °F -18.2 °F 81% 30.42 in 10.0 mi WNW 3.5 mph - N/A   Clear
4:55 AM -15.9 °F -26.0 °F -20.2 °F 81% 30.42 in 10.0 mi WNW 3.5 mph - N/A   Clear
5:15 AM -14.1 °F -28.3 °F -17.9 °F 83% 30.42 in 10.0 mi West 5.8 mph - N/A   Clear
5:35 AM -13.7 °F -27.8 °F -17.9 °F 82% 30.43 in 10.0 mi WNW 5.8 mph - N/A   Clear
5:54 AM -13.9 °F -28.1 °F -17.9 °F 82% 30.43 in 10.0 mi WNW 5.8 mph - N/A   Clear
6:15 AM -17.0 °F -27.2 °F -21.6 °F 79% 30.43 in 10.0 mi WNW 3.5 mph - N/A   Clear
6:34 AM -18.2 °F -28.7 °F -22.9 °F 79% 30.43 in 10.0 mi West 3.5 mph - N/A   Clear
6:55 AM -20.6 °F -31.3 °F -25.8 °F 77% 30.43 in 10.0 mi WNW 3.5 mph - N/A   Clear
7:15 AM -18.4 °F -31.4 °F -23.1 °F 79% 30.43 in 10.0 mi WNW 4.6 mph - N/A   Clear
7:35 AM -13.2 °F -25.3 °F -17.3 °F 82% 30.44 in 10.0 mi WNW 4.6 mph - N/A   Clear
7:55 AM -17.7 °F -30.5 °F -22.4 °F 79% 30.43 in 10.0 mi West 4.6 mph - N/A   Clear
8:15 AM -15.7 °F -30.2 °F -20.2 °F 80% 30.43 in 10.0 mi WNW 5.8 mph - N/A   Clear
8:35 AM -8.0 °F -21.0 °F -12.1 °F 82% 30.43 in 10.0 mi WNW 5.8 mph - N/A   Clear
8:55 AM -4.9 °F -15.6 °F -9.9 °F 79% 30.43 in 10.0 mi West 4.6 mph - N/A   Clear
9:14 AM -1.5 °F -9.5 °F -7.6 °F 75% 30.43 in 10.0 mi West 3.5 mph - N/A   Clear
9:35 AM 1.2 °F -6.4 °F -8.7 °F 63% 30.44 in 10.0 mi West 3.5 mph - N/A   Clear
9:55 AM 2.8 °F -6.6 °F -10.5 °F 54% 30.44 in 10.0 mi West 4.6 mph - N/A   Clear
10:14 AM 4.1 °F - -9.0 °F 55% 30.43 in 10.0 mi Calm Calm - N/A   Clear
10:35 AM 4.1 °F -5.1 °F -8.3 °F 56% 30.43 in 10.0 mi SW 4.6 mph - N/A   Clear
10:54 AM 5.2 °F -5.4 °F -7.1 °F 57% 30.43 in 10.0 mi SW 5.8 mph - N/A   Clear
11:15 AM 5.4 °F -8.6 °F -6.2 °F 59% 30.42 in 10.0 mi South 9.2 mph - N/A   Clear
11:35 AM 6.3 °F -4.1 °F -5.3 °F 59% 30.42 in 10.0 mi South 5.8 mph - N/A   Clear
11:55 AM 7.2 °F -6.4 °F -5.1 °F 57% 30.41 in 10.0 mi SW 9.2 mph - N/A   Clear
12:15 PM 7.5 °F -6.0 °F -5.1 °F 56% 30.40 in 10.0 mi SSW 9.2 mph - N/A   Clear
12:35 PM 8.4 °F -2.8 °F -5.1 °F 54% 30.39 in 10.0 mi South 6.9 mph - N/A   Clear
12:55 PM 8.6 °F -2.6 °F -4.7 °F 55% 30.39 in 10.0 mi SSW 6.9 mph - N/A   Clear
1:15 PM 8.6 °F -3.7 °F -4.9 °F 54% 30.38 in 10.0 mi SSW 8.1 mph - N/A   Clear
1:34 PM 9.5 °F -4.4 °F -4.0 °F 54% 30.38 in 10.0 mi SSW 10.4 mph - N/A   Clear
1:55 PM 9.9 °F -4.0 °F -2.0 °F 59% 30.37 in 10.0 mi SSW 10.4 mph - N/A   Clear
2:15 PM 10.8 °F -2.0 °F -1.5 °F 58% 30.36 in 10.0 mi SSW 9.2 mph - N/A   Clear
2:34 PM 10.4 °F -4.8 °F -0.8 °F 61% 30.35 in 10.0 mi SSW 12.7 mph - N/A   Clear
2:55 PM 10.4 °F -4.1 °F -0.2 °F 62% 30.35 in 10.0 mi SSW 11.5 mph - N/A   Clear
3:14 PM 10.4 °F -6.0 °F -0.2 °F 62% 30.35 in 10.0 mi SSW 15.0 mph 19.6 mph N/A   Clear
3:35 PM 10.9 °F -4.7 °F -0.6 °F 60% 30.34 in 10.0 mi SSW 13.8 mph 19.6 mph N/A   Clear
3:54 PM 11.7 °F -3.2 °F -0.4 °F 58% 30.33 in 10.0 mi SW 12.7 mph 18.4 mph N/A   Clear
4:15 PM 11.7 °F -3.8 °F -1.1 °F 57% 30.33 in 10.0 mi SSW 13.8 mph 18.4 mph N/A   Clear
4:35 PM 11.1 °F -4.5 °F -2.0 °F 56% 30.33 in 10.0 mi SSW 13.8 mph 19.6 mph N/A   Clear
4:54 PM 11.1 °F -2.4 °F -1.7 °F 57% 30.33 in 10.0 mi SSW 10.4 mph - N/A   Clear
5:15 PM 10.8 °F -3.6 °F -2.4 °F 56% 30.33 in 10.0 mi SSW 11.5 mph 17.3 mph N/A   Clear
5:35 PM 10.4 °F -3.3 °F -2.9 °F 55% 30.32 in 10.0 mi SSW 10.4 mph - N/A   Clear
5:55 PM 10.0 °F -2.9 °F -3.3 °F 55% 30.32 in 10.0 mi SSW 9.2 mph - N/A   Clear
6:15 PM 9.3 °F -4.6 °F -3.3 °F 57% 30.31 in 10.0 mi SSW 10.4 mph - N/A   Clear
6:34 PM 9.3 °F -0.5 °F -5.1 °F 52% 30.31 in 10.0 mi SW 5.8 mph - N/A   Clear
6:55 PM 9.3 °F 2.8 °F -2.6 °F 59% 30.31 in 10.0 mi SW 3.5 mph - N/A   Clear
7:14 PM 9.1 °F 2.6 °F -3.1 °F 58% 30.31 in 10.0 mi WSW 3.5 mph - N/A   Clear
7:35 PM 8.6 °F - -4.0 °F 57% 30.30 in 10.0 mi Calm Calm - N/A   Clear
7:55 PM 8.4 °F 1.8 °F -3.6 °F 58% 30.30 in 10.0 mi WSW 3.5 mph - N/A   Clear
8:14 PM 8.4 °F 1.8 °F -3.5 °F 59% 30.29 in 10.0 mi WSW 3.5 mph - N/A   Clear
8:35 PM 9.1 °F -0.7 °F -2.2 °F 60% 30.29 in 10.0 mi SW 5.8 mph - N/A   Scattered Clouds
8:55 PM 9.9 °F -1.1 °F -2.2 °F 58% 30.29 in 10.0 mi SW 6.9 mph - N/A   Scattered Clouds
9:15 PM 9.5 °F -0.3 °F -2.0 °F 60% 30.28 in 10.0 mi SW 5.8 mph - N/A   Mostly Cloudy
9:35 PM 9.7 °F -1.3 °F -1.8 °F 60% 30.28 in 10.0 mi SW 6.9 mph - N/A   Scattered Clouds
9:55 PM 10.0 °F -0.9 °F -1.8 °F 59% 30.27 in 10.0 mi SSW 6.9 mph - N/A   Clear
10:15 PM 10.0 °F -0.9 °F -2.2 °F 58% 30.27 in 10.0 mi SW 6.9 mph - N/A   Scattered Clouds
10:35 PM 10.0 °F 0.4 °F -2.0 °F 58% 30.26 in 10.0 mi SW 5.8 mph - N/A   Scattered Clouds
10:54 PM 10.0 °F 1.8 °F -1.5 °F 60% 30.26 in 10.0 mi SW 4.6 mph - N/A   Mostly Cloudy
11:15 PM 10.0 °F 1.8 °F -1.7 °F 59% 30.26 in 10.0 mi WSW 4.6 mph - N/A   Overcast
11:35 PM 9.5 °F 3.0 °F -1.8 °F 60% 30.25 in 10.0 mi SW 3.5 mph - N/A   Mostly Cloudy
11:55 PM 9.5 °F - -1.3 °F 62% 30.25 in 10.0 mi Calm Calm - N/A   Overcast